owner,sensor,date,latitude,longitude,vertical_datum,sea_water_temperature,qcFlag 
NERRS,ioos:station:NOAA.NERRS:rkblhwq:1,2019-02-01T00:45:00Z,26.0257,-81.7332,0.0,18.2,11111222 
NERRS,ioos:station:NOAA.NERRS:rkblhwq:1,2019-02-01T01:45:00Z,26.0257,-81.7332,0.0,18.2,11111222 
NERRS,ioos:station:NOAA.NERRS:rkblhwq:1,2019-02-01T02:45:00Z,26.0257,-81.7332,0.0,18.0,11111222 
NERRS,ioos:station:NOAA.NERRS:rkblhwq:1,2019-02-01T03:45:00Z,26.0257,-81.7332,0.0,18.0,11111222 
NERRS,ioos:station:NOAA.NERRS:rkblhwq:1,2019-02-01T04:45:00Z,26.0257,-81.7332,0.0,18.1,11111222 
NERRS,ioos:station:NOAA.NERRS:rkblhwq:1,2019-02-01T05:45:00Z,26.0257,-81.7332,0.0,18.3,11111222 
NERRS,ioos:station:NOAA.NERRS:rkblhwq:1,2019-02-01T06:45:00Z,26.0257,-81.7332,0.0,18.3,11111222 
NERRS,ioos:station:NOAA.NERRS:rkblhwq:1,2019-02-01T07:45:00Z,26.0257,-81.7332,0.0,18.4,11111222 
NERRS,ioos:station:NOAA.NERRS:rkblhwq:1,2019-02-01T08:45:00Z,26.0257,-81.7332,0.0,18.4,11111222 
NERRS,ioos:station:NOAA.NERRS:rkblhwq:1,2019-02-01T09:45:00Z,26.0257,-81.7332,0.0,18.4,11111222 
NERRS,ioos:station:NOAA.NERRS:rkblhwq:1,2019-02-01T10:45:00Z,26.0257,-81.7332,0.0,18.3,11111222 
NERRS,ioos:station:NOAA.NERRS:rkblhwq:1,2019-02-01T11:45:00Z,26.0257,-81.7332,0.0,18.2,11111222 
NERRS,ioos:station:NOAA.NERRS:rkblhwq:1,2019-02-01T12:45:00Z,26.0257,-81.7332,0.0,18.1,11111222 
NERRS,ioos:station:NOAA.NERRS:rkblhwq:1,2019-02-01T13:45:00Z,26.0257,-81.7332,0.0,18.2,11111222 
NERRS,ioos:station:NOAA.NERRS:rkblhwq:1,2019-02-01T15:45:00Z,26.0257,-81.7332,0.0,18.6,11111222 
NERRS,ioos:station:NOAA.NERRS:rkblhwq:1,2019-02-01T17:45:00Z,26.0257,-81.7332,0.0,18.9,11111222 
NERRS,ioos:station:NOAA.NERRS:rkblhwq:1,2019-02-01T18:45:00Z,26.0257,-81.7332,0.0,19.1,11111222 
NERRS,ioos:station:NOAA.NERRS:rkblhwq:1,2019-02-01T19:45:00Z,26.0257,-81.7332,0.0,19.6,11111222 
NERRS,ioos:station:NOAA.NERRS:rkblhwq:1,2019-02-01T20:45:00Z,26.0257,-81.7332,0.0,19.2,11111222 
NERRS,ioos:station:NOAA.NERRS:rkblhwq:1,2019-02-01T21:45:00Z,26.0257,-81.7332,0.0,19.3,11111222 
NERRS,ioos:station:NOAA.NERRS:rkblhwq:1,2019-02-01T23:45:00Z,26.0257,-81.7332,0.0,20.1,11111222 
NERRS,ioos:station:NOAA.NERRS:rkblhwq:1,2019-02-02T00:45:00Z,26.0257,-81.7332,0.0,20.0,11111222 
NERRS,ioos:station:NOAA.NERRS:rkblhwq:1,2019-02-02T01:45:00Z,26.0257,-81.7332,0.0,19.9,11111222 
NERRS,ioos:station:NOAA.NERRS:rkblhwq:1,2019-02-02T02:45:00Z,26.0257,-81.7332,0.0,19.7,11111222 
NERRS,ioos:station:NOAA.NERRS:rkblhwq:1,2019-02-02T03:45:00Z,26.0257,-81.7332,0.0,19.6,11111222 
NERRS,ioos:station:NOAA.NERRS:rkblhwq:1,2019-02-02T04:45:00Z,26.0257,-81.7332,0.0,19.6,11111222 
NERRS,ioos:station:NOAA.NERRS:rkblhwq:1,2019-02-02T05:45:00Z,26.0257,-81.7332,0.0,19.9,11111222 
NERRS,ioos:station:NOAA.NERRS:rkblhwq:1,2019-02-02T06:45:00Z,26.0257,-81.7332,0.0,19.9,11111222 
NERRS,ioos:station:NOAA.NERRS:rkblhwq:1,2019-02-02T07:45:00Z,26.0257,-81.7332,0.0,20.0,11111222 
NERRS,ioos:station:NOAA.NERRS:rkblhwq:1,2019-02-02T08:45:00Z,26.0257,-81.7332,0.0,20.1,11111222 
NERRS,ioos:station:NOAA.NERRS:rkblhwq:1,2019-02-02T09:45:00Z,26.0257,-81.7332,0.0,20.1,11111222 
NERRS,ioos:station:NOAA.NERRS:rkblhwq:1,2019-02-02T10:45:00Z,26.0257,-81.7332,0.0,19.9,11111222 
NERRS,ioos:station:NOAA.NERRS:rkblhwq:1,2019-02-02T11:45:00Z,26.0257,-81.7332,0.0,19.9,11111222 
NERRS,ioos:station:NOAA.NERRS:rkblhwq:1,2019-02-02T12:45:00Z,26.0257,-81.7332,0.0,19.7,11111222 
NERRS,ioos:station:NOAA.NERRS:rkblhwq:1,2019-02-02T13:45:00Z,26.0257,-81.7332,0.0,19.7,11111222 
NERRS,ioos:station:NOAA.NERRS:rkblhwq:1,2019-02-02T14:45:00Z,26.0257,-81.7332,0.0,19.9,11111222 
NERRS,ioos:station:NOAA.NERRS:rkblhwq:1,2019-02-02T15:45:00Z,26.0257,-81.7332,0.0,20.1,11111222 
NERRS,ioos:station:NOAA.NERRS:rkblhwq:1,2019-02-02T16:45:00Z,26.0257,-81.7332,0.0,20.3,11111222 
NERRS,ioos:station:NOAA.NERRS:rkblhwq:1,2019-02-02T18:45:00Z,26.0257,-81.7332,0.0,20.9,11111222 
NERRS,ioos:station:NOAA.NERRS:rkblhwq:1,2019-02-02T19:45:00Z,26.0257,-81.7332,0.0,20.9,11111222 
NERRS,ioos:station:NOAA.NERRS:rkblhwq:1,2019-02-02T21:45:00Z,26.0257,-81.7332,0.0,21.4,11111222 
NERRS,ioos:station:NOAA.NERRS:rkblhwq:1,2019-02-02T22:45:00Z,26.0257,-81.7332,0.0,21.4,11111222 
NERRS,ioos:station:NOAA.NERRS:rkblhwq:1,2019-02-03T00:45:00Z,26.0257,-81.7332,0.0,21.8,11111222 
NERRS,ioos:station:NOAA.NERRS:rkblhwq:1,2019-02-03T01:45:00Z,26.0257,-81.7332,0.0,21.6,11111222 
NERRS,ioos:station:NOAA.NERRS:rkblhwq:1,2019-02-03T02:45:00Z,26.0257,-81.7332,0.0,21.3,11111222 
NERRS,ioos:station:NOAA.NERRS:rkblhwq:1,2019-02-03T03:45:00Z,26.0257,-81.7332,0.0,21.2,11111222 
NERRS,ioos:station:NOAA.NERRS:rkblhwq:1,2019-02-03T04:45:00Z,26.0257,-81.7332,0.0,20.9,11111222 
NERRS,ioos:station:NOAA.NERRS:rkblhwq:1,2019-02-03T05:45:00Z,26.0257,-81.7332,0.0,21.2,11111222 
NERRS,ioos:station:NOAA.NERRS:rkblhwq:1,2019-02-03T06:45:00Z,26.0257,-81.7332,0.0,21.2,11111222 
NERRS,ioos:station:NOAA.NERRS:rkblhwq:1,2019-02-03T07:45:00Z,26.0257,-81.7332,0.0,21.2,11111222 
NERRS,ioos:station:NOAA.NERRS:rkblhwq:1,2019-02-03T08:45:00Z,26.0257,-81.7332,0.0,21.5,11111222 
NERRS,ioos:station:NOAA.NERRS:rkblhwq:1,2019-02-03T09:45:00Z,26.0257,-81.7332,0.0,21.6,11111222 
NERRS,ioos:station:NOAA.NERRS:rkblhwq:1,2019-02-03T10:45:00Z,26.0257,-81.7332,0.0,21.5,11111222 
NERRS,ioos:station:NOAA.NERRS:rkblhwq:1,2019-02-03T11:45:00Z,26.0257,-81.7332,0.0,21.4,11111222 
NERRS,ioos:station:NOAA.NERRS:rkblhwq:1,2019-02-03T12:45:00Z,26.0257,-81.7332,0.0,21.3,11111222 
NERRS,ioos:station:NOAA.NERRS:rkblhwq:1,2019-02-03T13:45:00Z,26.0257,-81.7332,0.0,21.4,11111222 
NERRS,ioos:station:NOAA.NERRS:rkblhwq:1,2019-02-03T14:45:00Z,26.0257,-81.7332,0.0,21.5,11111222 
NERRS,ioos:station:NOAA.NERRS:rkblhwq:1,2019-02-03T15:45:00Z,26.0257,-81.7332,0.0,21.5,11111222 
NERRS,ioos:station:NOAA.NERRS:rkblhwq:1,2019-02-03T16:45:00Z,26.0257,-81.7332,0.0,21.7,11111222 
NERRS,ioos:station:NOAA.NERRS:rkblhwq:1,2019-02-03T18:45:00Z,26.0257,-81.7332,0.0,22.1,11111222 
NERRS,ioos:station:NOAA.NERRS:rkblhwq:1,2019-02-03T19:45:00Z,26.0257,-81.7332,0.0,22.2,11111222 
NERRS,ioos:station:NOAA.NERRS:rkblhwq:1,2019-02-03T20:45:00Z,26.0257,-81.7332,0.0,22.3,11111222 
NERRS,ioos:station:NOAA.NERRS:rkblhwq:1,2019-02-03T21:45:00Z,26.0257,-81.7332,0.0,22.6,11111222 
NERRS,ioos:station:NOAA.NERRS:rkblhwq:1,2019-02-03T22:45:00Z,26.0257,-81.7332,0.0,22.7,11111222 
NERRS,ioos:station:NOAA.NERRS:rkblhwq:1,2019-02-03T23:45:00Z,26.0257,-81.7332,0.0,22.6,11111222 
NERRS,ioos:station:NOAA.NERRS:rkblhwq:1,2019-02-04T00:45:00Z,26.0257,-81.7332,0.0,23.0,11111222 
NERRS,ioos:station:NOAA.NERRS:rkblhwq:1,2019-02-04T01:45:00Z,26.0257,-81.7332,0.0,22.9,11111222 
NERRS,ioos:station:NOAA.NERRS:rkblhwq:1,2019-02-04T02:45:00Z,26.0257,-81.7332,0.0,22.7,11111222 
NERRS,ioos:station:NOAA.NERRS:rkblhwq:1,2019-02-04T03:45:00Z,26.0257,-81.7332,0.0,22.4,11111222 
NERRS,ioos:station:NOAA.NERRS:rkblhwq:1,2019-02-04T04:45:00Z,26.0257,-81.7332,0.0,22.3,11111222 
NERRS,ioos:station:NOAA.NERRS:rkblhwq:1,2019-02-04T05:45:00Z,26.0257,-81.7332,0.0,22.0,11111222 
NERRS,ioos:station:NOAA.NERRS:rkblhwq:1,2019-02-04T06:45:00Z,26.0257,-81.7332,0.0,22.3,11111222 
NERRS,ioos:station:NOAA.NERRS:rkblhwq:1,2019-02-04T07:45:00Z,26.0257,-81.7332,0.0,22.2,11111222 
NERRS,ioos:station:NOAA.NERRS:rkblhwq:1,2019-02-04T08:45:00Z,26.0257,-81.7332,0.0,22.5,11111222 
NERRS,ioos:station:NOAA.NERRS:rkblhwq:1,2019-02-04T09:45:00Z,26.0257,-81.7332,0.0,22.6,11111222 
NERRS,ioos:station:NOAA.NERRS:rkblhwq:1,2019-02-04T10:45:00Z,26.0257,-81.7332,0.0,22.6,11111222 
NERRS,ioos:station:NOAA.NERRS:rkblhwq:1,2019-02-04T11:45:00Z,26.0257,-81.7332,0.0,22.5,11111222 
NERRS,ioos:station:NOAA.NERRS:rkblhwq:1,2019-02-04T12:45:00Z,26.0257,-81.7332,0.0,22.5,11111222 
NERRS,ioos:station:NOAA.NERRS:rkblhwq:1,2019-02-04T13:45:00Z,26.0257,-81.7332,0.0,22.5,11111222 
NERRS,ioos:station:NOAA.NERRS:rkblhwq:1,2019-02-04T14:45:00Z,26.0257,-81.7332,0.0,22.5,11111222 
NERRS,ioos:station:NOAA.NERRS:rkblhwq:1,2019-02-04T15:45:00Z,26.0257,-81.7332,0.0,22.8,11111222 
NERRS,ioos:station:NOAA.NERRS:rkblhwq:1,2019-02-04T16:45:00Z,26.0257,-81.7332,0.0,22.8,11111222 
NERRS,ioos:station:NOAA.NERRS:rkblhwq:1,2019-02-04T18:45:00Z,26.0257,-81.7332,0.0,23.1,11111222 
NERRS,ioos:station:NOAA.NERRS:rkblhwq:1,2019-02-04T19:45:00Z,26.0257,-81.7332,0.0,23.2,11111222 
NERRS,ioos:station:NOAA.NERRS:rkblhwq:1,2019-02-04T21:45:00Z,26.0257,-81.7332,0.0,23.5,11111222 
NERRS,ioos:station:NOAA.NERRS:rkblhwq:1,2019-02-04T22:45:00Z,26.0257,-81.7332,0.0,23.7,11111222 
NERRS,ioos:station:NOAA.NERRS:rkblhwq:1,2019-02-04T23:45:00Z,26.0257,-81.7332,0.0,23.6,11111222 
NERRS,ioos:station:NOAA.NERRS:rkblhwq:1,2019-02-05T00:45:00Z,26.0257,-81.7332,0.0,23.6,11111222 
NERRS,ioos:station:NOAA.NERRS:rkblhwq:1,2019-02-05T01:45:00Z,26.0257,-81.7332,0.0,23.4,11111222 
NERRS,ioos:station:NOAA.NERRS:rkblhwq:1,2019-02-05T02:45:00Z,26.0257,-81.7332,0.0,23.2,11111222 
NERRS,ioos:station:NOAA.NERRS:rkblhwq:1,2019-02-05T03:45:00Z,26.0257,-81.7332,0.0,23.0,11111222 
NERRS,ioos:station:NOAA.NERRS:rkblhwq:1,2019-02-05T04:45:00Z,26.0257,-81.7332,0.0,22.7,11111222 
NERRS,ioos:station:NOAA.NERRS:rkblhwq:1,2019-02-05T05:45:00Z,26.0257,-81.7332,0.0,22.6,11111222 
NERRS,ioos:station:NOAA.NERRS:rkblhwq:1,2019-02-05T06:45:00Z,26.0257,-81.7332,0.0,22.4,11111222 
NERRS,ioos:station:NOAA.NERRS:rkblhwq:1,2019-02-05T07:45:00Z,26.0257,-81.7332,0.0,22.7,11111222 
NERRS,ioos:station:NOAA.NERRS:rkblhwq:1,2019-02-05T08:45:00Z,26.0257,-81.7332,0.0,22.6,11111222 
NERRS,ioos:station:NOAA.NERRS:rkblhwq:1,2019-02-05T09:45:00Z,26.0257,-81.7332,0.0,22.6,11111222 
NERRS,ioos:station:NOAA.NERRS:rkblhwq:1,2019-02-05T10:45:00Z,26.0257,-81.7332,0.0,22.6,11111222 
NERRS,ioos:station:NOAA.NERRS:rkblhwq:1,2019-02-05T11:45:00Z,26.0257,-81.7332,0.0,22.6,11111222 
NERRS,ioos:station:NOAA.NERRS:rkblhwq:1,2019-02-05T12:45:00Z,26.0257,-81.7332,0.0,22.5,11111222 
NERRS,ioos:station:NOAA.NERRS:rkblhwq:1,2019-02-05T13:45:00Z,26.0257,-81.7332,0.0,22.4,11111222 
NERRS,ioos:station:NOAA.NERRS:rkblhwq:1,2019-02-05T14:45:00Z,26.0257,-81.7332,0.0,22.6,11111222 
NERRS,ioos:station:NOAA.NERRS:rkblhwq:1,2019-02-05T16:45:00Z,26.0257,-81.7332,0.0,22.8,11111222 
NERRS,ioos:station:NOAA.NERRS:rkblhwq:1,2019-02-05T17:45:00Z,26.0257,-81.7332,0.0,22.8,11111222 
NERRS,ioos:station:NOAA.NERRS:rkblhwq:1,2019-02-05T18:45:00Z,26.0257,-81.7332,0.0,23.0,11111222 
NERRS,ioos:station:NOAA.NERRS:rkblhwq:1,2019-02-05T19:45:00Z,26.0257,-81.7332,0.0,23.0,11111222 
NERRS,ioos:station:NOAA.NERRS:rkblhwq:1,2019-02-05T20:45:00Z,26.0257,-81.7332,0.0,23.3,11111222 
NERRS,ioos:station:NOAA.NERRS:rkblhwq:1,2019-02-05T21:45:00Z,26.0257,-81.7332,0.0,23.3,11111222 
NERRS,ioos:station:NOAA.NERRS:rkblhwq:1,2019-02-05T23:45:00Z,26.0257,-81.7332,0.0,23.6,11111222 
NERRS,ioos:station:NOAA.NERRS:rkblhwq:1,2019-02-06T00:45:00Z,26.0257,-81.7332,0.0,23.6,11111222 
NERRS,ioos:station:NOAA.NERRS:rkblhwq:1,2019-02-06T01:45:00Z,26.0257,-81.7332,0.0,23.6,11111222 
NERRS,ioos:station:NOAA.NERRS:rkblhwq:1,2019-02-06T02:45:00Z,26.0257,-81.7332,0.0,23.2,11111222 
NERRS,ioos:station:NOAA.NERRS:rkblhwq:1,2019-02-06T03:45:00Z,26.0257,-81.7332,0.0,23.0,11111222 
NERRS,ioos:station:NOAA.NERRS:rkblhwq:1,2019-02-06T04:45:00Z,26.0257,-81.7332,0.0,22.6,11111222 
NERRS,ioos:station:NOAA.NERRS:rkblhwq:1,2019-02-06T05:45:00Z,26.0257,-81.7332,0.0,22.4,11111222 
NERRS,ioos:station:NOAA.NERRS:rkblhwq:1,2019-02-06T06:45:00Z,26.0257,-81.7332,0.0,22.1,11111222 
NERRS,ioos:station:NOAA.NERRS:rkblhwq:1,2019-02-06T07:45:00Z,26.0257,-81.7332,0.0,22.4,11111222 
NERRS,ioos:station:NOAA.NERRS:rkblhwq:1,2019-02-06T08:45:00Z,26.0257,-81.7332,0.0,22.4,11111222 
NERRS,ioos:station:NOAA.NERRS:rkblhwq:1,2019-02-06T09:45:00Z,26.0257,-81.7332,0.0,22.4,11111222 
NERRS,ioos:station:NOAA.NERRS:rkblhwq:1,2019-02-06T10:45:00Z,26.0257,-81.7332,0.0,22.4,11111222 
NERRS,ioos:station:NOAA.NERRS:rkblhwq:1,2019-02-06T11:45:00Z,26.0257,-81.7332,0.0,22.3,11111222 
NERRS,ioos:station:NOAA.NERRS:rkblhwq:1,2019-02-06T12:45:00Z,26.0257,-81.7332,0.0,22.2,11111222 
NERRS,ioos:station:NOAA.NERRS:rkblhwq:1,2019-02-06T13:45:00Z,26.0257,-81.7332,0.0,22.3,11111222 
NERRS,ioos:station:NOAA.NERRS:rkblhwq:1,2019-02-06T14:45:00Z,26.0257,-81.7332,0.0,22.5,11111222 
NERRS,ioos:station:NOAA.NERRS:rkblhwq:1,2019-02-06T15:45:00Z,26.0257,-81.7332,0.0,22.8,11111222 
NERRS,ioos:station:NOAA.NERRS:rkblhwq:1,2019-02-06T17:45:00Z,26.0257,-81.7332,0.0,23.0,11111222 
NERRS,ioos:station:NOAA.NERRS:rkblhwq:1,2019-02-06T18:45:00Z,26.0257,-81.7332,0.0,23.2,11111222 
NERRS,ioos:station:NOAA.NERRS:rkblhwq:1,2019-02-06T19:45:00Z,26.0257,-81.7332,0.0,23.2,11111222 
NERRS,ioos:station:NOAA.NERRS:rkblhwq:1,2019-02-06T21:45:00Z,26.0257,-81.7332,0.0,23.4,11111222 
NERRS,ioos:station:NOAA.NERRS:rkblhwq:1,2019-02-06T22:45:00Z,26.0257,-81.7332,0.0,23.7,11111222 
NERRS,ioos:station:NOAA.NERRS:rkblhwq:1,2019-02-07T00:45:00Z,26.0257,-81.7332,0.0,24.0,11111222 
NERRS,ioos:station:NOAA.NERRS:rkblhwq:1,2019-02-07T01:45:00Z,26.0257,-81.7332,0.0,24.1,11111222 
NERRS,ioos:station:NOAA.NERRS:rkblhwq:1,2019-02-07T02:45:00Z,26.0257,-81.7332,0.0,23.7,11111222 
NERRS,ioos:station:NOAA.NERRS:rkblhwq:1,2019-02-07T03:45:00Z,26.0257,-81.7332,0.0,23.4,11111222 
NERRS,ioos:station:NOAA.NERRS:rkblhwq:1,2019-02-07T04:45:00Z,26.0257,-81.7332,0.0,23.0,11111222 
NERRS,ioos:station:NOAA.NERRS:rkblhwq:1,2019-02-07T05:45:00Z,26.0257,-81.7332,0.0,22.7,11111222 
NERRS,ioos:station:NOAA.NERRS:rkblhwq:1,2019-02-07T06:45:00Z,26.0257,-81.7332,0.0,22.5,11111222 
NERRS,ioos:station:NOAA.NERRS:rkblhwq:1,2019-02-07T07:45:00Z,26.0257,-81.7332,0.0,22.3,11111222 
NERRS,ioos:station:NOAA.NERRS:rkblhwq:1,2019-02-07T08:45:00Z,26.0257,-81.7332,0.0,22.4,11111222 
NERRS,ioos:station:NOAA.NERRS:rkblhwq:1,2019-02-07T09:45:00Z,26.0257,-81.7332,0.0,22.7,11111222 
NERRS,ioos:station:NOAA.NERRS:rkblhwq:1,2019-02-07T10:45:00Z,26.0257,-81.7332,0.0,22.7,11111222 
NERRS,ioos:station:NOAA.NERRS:rkblhwq:1,2019-02-07T11:45:00Z,26.0257,-81.7332,0.0,22.5,11111222 
NERRS,ioos:station:NOAA.NERRS:rkblhwq:1,2019-02-07T12:45:00Z,26.0257,-81.7332,0.0,22.5,11111222 
NERRS,ioos:station:NOAA.NERRS:rkblhwq:1,2019-02-07T13:45:00Z,26.0257,-81.7332,0.0,22.5,11111222 
NERRS,ioos:station:NOAA.NERRS:rkblhwq:1,2019-02-07T15:45:00Z,26.0257,-81.7332,0.0,23.0,11111222 
NERRS,ioos:station:NOAA.NERRS:rkblhwq:1,2019-02-07T17:45:00Z,26.0257,-81.7332,0.0,23.4,11111222 
NERRS,ioos:station:NOAA.NERRS:rkblhwq:1,2019-02-07T18:45:00Z,26.0257,-81.7332,0.0,23.3,11111222 
NERRS,ioos:station:NOAA.NERRS:rkblhwq:1,2019-02-07T19:45:00Z,26.0257,-81.7332,0.0,23.4,11111222 
NERRS,ioos:station:NOAA.NERRS:rkblhwq:1,2019-02-07T20:45:00Z,26.0257,-81.7332,0.0,23.5,11111222 
NERRS,ioos:station:NOAA.NERRS:rkblhwq:1,2019-02-07T21:45:00Z,26.0257,-81.7332,0.0,23.6,11111222 
NERRS,ioos:station:NOAA.NERRS:rkblhwq:1,2019-02-07T23:45:00Z,26.0257,-81.7332,0.0,23.8,11111222 
NERRS,ioos:station:NOAA.NERRS:rkblhwq:1,2019-02-08T00:45:00Z,26.0257,-81.7332,0.0,24.4,11111222 
NERRS,ioos:station:NOAA.NERRS:rkblhwq:1,2019-02-08T01:45:00Z,26.0257,-81.7332,0.0,24.5,11111222 
NERRS,ioos:station:NOAA.NERRS:rkblhwq:1,2019-02-08T02:45:00Z,26.0257,-81.7332,0.0,24.1,11111222 
NERRS,ioos:station:NOAA.NERRS:rkblhwq:1,2019-02-08T03:45:00Z,26.0257,-81.7332,0.0,23.7,11111222 
NERRS,ioos:station:NOAA.NERRS:rkblhwq:1,2019-02-08T04:45:00Z,26.0257,-81.7332,0.0,23.4,11111222 
NERRS,ioos:station:NOAA.NERRS:rkblhwq:1,2019-02-08T05:45:00Z,26.0257,-81.7332,0.0,23.0,11111222 
NERRS,ioos:station:NOAA.NERRS:rkblhwq:1,2019-02-08T06:45:00Z,26.0257,-81.7332,0.0,22.9,11111222 
NERRS,ioos:station:NOAA.NERRS:rkblhwq:1,2019-02-08T07:45:00Z,26.0257,-81.7332,0.0,22.6,11111222 
NERRS,ioos:station:NOAA.NERRS:rkblhwq:1,2019-02-08T08:45:00Z,26.0257,-81.7332,0.0,22.6,11111222 
NERRS,ioos:station:NOAA.NERRS:rkblhwq:1,2019-02-08T09:45:00Z,26.0257,-81.7332,0.0,22.6,11111222 
NERRS,ioos:station:NOAA.NERRS:rkblhwq:1,2019-02-08T10:45:00Z,26.0257,-81.7332,0.0,22.7,11111222 
NERRS,ioos:station:NOAA.NERRS:rkblhwq:1,2019-02-08T11:45:00Z,26.0257,-81.7332,0.0,22.7,11111222 
NERRS,ioos:station:NOAA.NERRS:rkblhwq:1,2019-02-08T12:45:00Z,26.0257,-81.7332,0.0,22.7,11111222 
NERRS,ioos:station:NOAA.NERRS:rkblhwq:1,2019-02-08T14:45:00Z,26.0257,-81.7332,0.0,23.1,11111222 
NERRS,ioos:station:NOAA.NERRS:rkblhwq:1,2019-02-08T16:45:00Z,26.0257,-81.7332,0.0,23.7,11111222 
NERRS,ioos:station:NOAA.NERRS:rkblhwq:1,2019-02-08T17:45:00Z,26.0257,-81.7332,0.0,24.0,11111222 
NERRS,ioos:station:NOAA.NERRS:rkblhwq:1,2019-02-08T18:45:00Z,26.0257,-81.7332,0.0,23.7,11111222 
NERRS,ioos:station:NOAA.NERRS:rkblhwq:1,2019-02-08T19:45:00Z,26.0257,-81.7332,0.0,23.8,11111222 
NERRS,ioos:station:NOAA.NERRS:rkblhwq:1,2019-02-08T21:45:00Z,26.0257,-81.7332,0.0,23.8,11111222 
NERRS,ioos:station:NOAA.NERRS:rkblhwq:1,2019-02-08T23:45:00Z,26.0257,-81.7332,0.0,23.9,11111222 
NERRS,ioos:station:NOAA.NERRS:rkblhwq:1,2019-02-09T00:45:00Z,26.0257,-81.7332,0.0,24.4,11111222 
NERRS,ioos:station:NOAA.NERRS:rkblhwq:1,2019-02-09T01:45:00Z,26.0257,-81.7332,0.0,24.5,11111222 
NERRS,ioos:station:NOAA.NERRS:rkblhwq:1,2019-02-09T02:45:00Z,26.0257,-81.7332,0.0,24.4,11111222 
NERRS,ioos:station:NOAA.NERRS:rkblhwq:1,2019-02-09T03:45:00Z,26.0257,-81.7332,0.0,24.1,11111222 
NERRS,ioos:station:NOAA.NERRS:rkblhwq:1,2019-02-09T04:45:00Z,26.0257,-81.7332,0.0,23.7,11111222 
NERRS,ioos:station:NOAA.NERRS:rkblhwq:1,2019-02-09T05:45:00Z,26.0257,-81.7332,0.0,23.4,11111222 
NERRS,ioos:station:NOAA.NERRS:rkblhwq:1,2019-02-09T06:45:00Z,26.0257,-81.7332,0.0,23.1,11111222 
NERRS,ioos:station:NOAA.NERRS:rkblhwq:1,2019-02-09T07:45:00Z,26.0257,-81.7332,0.0,22.8,11111222 
NERRS,ioos:station:NOAA.NERRS:rkblhwq:1,2019-02-09T08:45:00Z,26.0257,-81.7332,0.0,22.7,11111222 
NERRS,ioos:station:NOAA.NERRS:rkblhwq:1,2019-02-09T09:45:00Z,26.0257,-81.7332,0.0,22.8,11111222 
NERRS,ioos:station:NOAA.NERRS:rkblhwq:1,2019-02-09T10:45:00Z,26.0257,-81.7332,0.0,22.8,11111222 
NERRS,ioos:station:NOAA.NERRS:rkblhwq:1,2019-02-09T11:45:00Z,26.0257,-81.7332,0.0,22.7,11111222 
NERRS,ioos:station:NOAA.NERRS:rkblhwq:1,2019-02-09T12:45:00Z,26.0257,-81.7332,0.0,22.7,11111222 
NERRS,ioos:station:NOAA.NERRS:rkblhwq:1,2019-02-09T13:45:00Z,26.0257,-81.7332,0.0,22.6,11111222 
NERRS,ioos:station:NOAA.NERRS:rkblhwq:1,2019-02-09T14:45:00Z,26.0257,-81.7332,0.0,22.9,11111222 
NERRS,ioos:station:NOAA.NERRS:rkblhwq:1,2019-02-09T15:45:00Z,26.0257,-81.7332,0.0,23.4,11111222 
NERRS,ioos:station:NOAA.NERRS:rkblhwq:1,2019-02-09T16:45:00Z,26.0257,-81.7332,0.0,23.7,11111222 
NERRS,ioos:station:NOAA.NERRS:rkblhwq:1,2019-02-09T18:45:00Z,26.0257,-81.7332,0.0,23.9,11111222 
NERRS,ioos:station:NOAA.NERRS:rkblhwq:1,2019-02-09T19:45:00Z,26.0257,-81.7332,0.0,23.7,11111222 
NERRS,ioos:station:NOAA.NERRS:rkblhwq:1,2019-02-09T20:45:00Z,26.0257,-81.7332,0.0,23.5,11111222 
NERRS,ioos:station:NOAA.NERRS:rkblhwq:1,2019-02-09T21:45:00Z,26.0257,-81.7332,0.0,23.4,11111222 
NERRS,ioos:station:NOAA.NERRS:rkblhwq:1,2019-02-09T23:45:00Z,26.0257,-81.7332,0.0,23.6,11111222 
NERRS,ioos:station:NOAA.NERRS:rkblhwq:1,2019-02-10T00:45:00Z,26.0257,-81.7332,0.0,23.7,11111222 
NERRS,ioos:station:NOAA.NERRS:rkblhwq:1,2019-02-10T01:45:00Z,26.0257,-81.7332,0.0,23.7,11111222 
NERRS,ioos:station:NOAA.NERRS:rkblhwq:1,2019-02-10T02:45:00Z,26.0257,-81.7332,0.0,23.7,11111222 
NERRS,ioos:station:NOAA.NERRS:rkblhwq:1,2019-02-10T03:45:00Z,26.0257,-81.7332,0.0,23.5,11111222 
NERRS,ioos:station:NOAA.NERRS:rkblhwq:1,2019-02-10T04:45:00Z,26.0257,-81.7332,0.0,23.3,11111222 
NERRS,ioos:station:NOAA.NERRS:rkblhwq:1,2019-02-10T05:45:00Z,26.0257,-81.7332,0.0,23.0,11111222 
NERRS,ioos:station:NOAA.NERRS:rkblhwq:1,2019-02-10T06:45:00Z,26.0257,-81.7332,0.0,22.7,11111222 
NERRS,ioos:station:NOAA.NERRS:rkblhwq:1,2019-02-10T07:45:00Z,26.0257,-81.7332,0.0,22.4,11111222 
NERRS,ioos:station:NOAA.NERRS:rkblhwq:1,2019-02-10T08:45:00Z,26.0257,-81.7332,0.0,22.2,11111222 
NERRS,ioos:station:NOAA.NERRS:rkblhwq:1,2019-02-10T09:45:00Z,26.0257,-81.7332,0.0,22.4,11111222 
NERRS,ioos:station:NOAA.NERRS:rkblhwq:1,2019-02-10T10:45:00Z,26.0257,-81.7332,0.0,22.0,11111222 
NERRS,ioos:station:NOAA.NERRS:rkblhwq:1,2019-02-10T11:45:00Z,26.0257,-81.7332,0.0,22.0,11111222 
NERRS,ioos:station:NOAA.NERRS:rkblhwq:1,2019-02-10T12:45:00Z,26.0257,-81.7332,0.0,21.9,11111222 
NERRS,ioos:station:NOAA.NERRS:rkblhwq:1,2019-02-10T13:45:00Z,26.0257,-81.7332,0.0,21.9,11111222 
NERRS,ioos:station:NOAA.NERRS:rkblhwq:1,2019-02-10T14:45:00Z,26.0257,-81.7332,0.0,22.1,11111222 
NERRS,ioos:station:NOAA.NERRS:rkblhwq:1,2019-02-10T16:45:00Z,26.0257,-81.7332,0.0,22.7,11111222 
NERRS,ioos:station:NOAA.NERRS:rkblhwq:1,2019-02-10T17:45:00Z,26.0257,-81.7332,0.0,23.0,11111222 
NERRS,ioos:station:NOAA.NERRS:rkblhwq:1,2019-02-10T19:45:00Z,26.0257,-81.7332,0.0,23.1,11111222 
NERRS,ioos:station:NOAA.NERRS:rkblhwq:1,2019-02-10T20:45:00Z,26.0257,-81.7332,0.0,23.1,11111222 
NERRS,ioos:station:NOAA.NERRS:rkblhwq:1,2019-02-10T21:45:00Z,26.0257,-81.7332,0.0,23.0,11111222 
NERRS,ioos:station:NOAA.NERRS:rkblhwq:1,2019-02-10T22:45:00Z,26.0257,-81.7332,0.0,22.9,11111222 
NERRS,ioos:station:NOAA.NERRS:rkblhwq:1,2019-02-11T00:45:00Z,26.0257,-81.7332,0.0,23.2,11111222 
NERRS,ioos:station:NOAA.NERRS:rkblhwq:1,2019-02-11T01:45:00Z,26.0257,-81.7332,0.0,23.7,11111222 
NERRS,ioos:station:NOAA.NERRS:rkblhwq:1,2019-02-11T02:45:00Z,26.0257,-81.7332,0.0,23.7,11111222 
NERRS,ioos:station:NOAA.NERRS:rkblhwq:1,2019-02-11T03:45:00Z,26.0257,-81.7332,0.0,23.6,11111222 
NERRS,ioos:station:NOAA.NERRS:rkblhwq:1,2019-02-11T04:45:00Z,26.0257,-81.7332,0.0,23.4,11111222 
NERRS,ioos:station:NOAA.NERRS:rkblhwq:1,2019-02-11T05:45:00Z,26.0257,-81.7332,0.0,23.1,11111222 
NERRS,ioos:station:NOAA.NERRS:rkblhwq:1,2019-02-11T06:45:00Z,26.0257,-81.7332,0.0,22.9,11111222 
NERRS,ioos:station:NOAA.NERRS:rkblhwq:1,2019-02-11T07:45:00Z,26.0257,-81.7332,0.0,22.8,11111222 
NERRS,ioos:station:NOAA.NERRS:rkblhwq:1,2019-02-11T09:45:00Z,26.0257,-81.7332,0.0,22.3,11111222 
NERRS,ioos:station:NOAA.NERRS:rkblhwq:1,2019-02-11T10:45:00Z,26.0257,-81.7332,0.0,22.2,11111222 
NERRS,ioos:station:NOAA.NERRS:rkblhwq:1,2019-02-11T11:45:00Z,26.0257,-81.7332,0.0,22.4,11111222 
NERRS,ioos:station:NOAA.NERRS:rkblhwq:1,2019-02-11T12:45:00Z,26.0257,-81.7332,0.0,22.5,11111222 
NERRS,ioos:station:NOAA.NERRS:rkblhwq:1,2019-02-11T13:45:00Z,26.0257,-81.7332,0.0,22.6,11111222 
NERRS,ioos:station:NOAA.NERRS:rkblhwq:1,2019-02-11T14:45:00Z,26.0257,-81.7332,0.0,22.7,11111222 
NERRS,ioos:station:NOAA.NERRS:rkblhwq:1,2019-02-11T15:45:00Z,26.0257,-81.7332,0.0,23.1,11111222 
NERRS,ioos:station:NOAA.NERRS:rkblhwq:1,2019-02-11T16:45:00Z,26.0257,-81.7332,0.0,23.6,11111222 
NERRS,ioos:station:NOAA.NERRS:rkblhwq:1,2019-02-11T17:45:00Z,26.0257,-81.7332,0.0,23.7,11111222 
NERRS,ioos:station:NOAA.NERRS:rkblhwq:1,2019-02-11T18:45:00Z,26.0257,-81.7332,0.0,24.1,11111222 
NERRS,ioos:station:NOAA.NERRS:rkblhwq:1,2019-02-11T20:45:00Z,26.0257,-81.7332,0.0,24.3,11111222 
NERRS,ioos:station:NOAA.NERRS:rkblhwq:1,2019-02-11T21:45:00Z,26.0257,-81.7332,0.0,24.2,11111222 
NERRS,ioos:station:NOAA.NERRS:rkblhwq:1,2019-02-11T22:45:00Z,26.0257,-81.7332,0.0,24.0,11111222 
NERRS,ioos:station:NOAA.NERRS:rkblhwq:1,2019-02-12T00:45:00Z,26.0257,-81.7332,0.0,24.5,11111222 
NERRS,ioos:station:NOAA.NERRS:rkblhwq:1,2019-02-12T01:45:00Z,26.0257,-81.7332,0.0,24.9,11111222 
NERRS,ioos:station:NOAA.NERRS:rkblhwq:1,2019-02-12T02:45:00Z,26.0257,-81.7332,0.0,24.9,11111222 
NERRS,ioos:station:NOAA.NERRS:rkblhwq:1,2019-02-12T03:45:00Z,26.0257,-81.7332,0.0,24.8,11111222 
NERRS,ioos:station:NOAA.NERRS:rkblhwq:1,2019-02-12T04:45:00Z,26.0257,-81.7332,0.0,24.8,11111222 
NERRS,ioos:station:NOAA.NERRS:rkblhwq:1,2019-02-12T05:45:00Z,26.0257,-81.7332,0.0,24.6,11111222 
NERRS,ioos:station:NOAA.NERRS:rkblhwq:1,2019-02-12T06:45:00Z,26.0257,-81.7332,0.0,24.2,11111222 
NERRS,ioos:station:NOAA.NERRS:rkblhwq:1,2019-02-12T07:45:00Z,26.0257,-81.7332,0.0,23.9,11111222 
NERRS,ioos:station:NOAA.NERRS:rkblhwq:1,2019-02-12T08:45:00Z,26.0257,-81.7332,0.0,23.8,11111222 
NERRS,ioos:station:NOAA.NERRS:rkblhwq:1,2019-02-12T09:45:00Z,26.0257,-81.7332,0.0,23.6,11111222 
NERRS,ioos:station:NOAA.NERRS:rkblhwq:1,2019-02-12T10:45:00Z,26.0257,-81.7332,0.0,23.4,11111222 